GW2646 Weather Reports


Display with metric or nautical units.
time (UTC)temp
F
wind
direction
speed
MPH
gust
MPH
rain 1hr
in
rain 24hr
in
rain mn
in
humidity
%
barometer
mb
20260505200547 58 217 1.0 7.0 0.00 0.00 0.00 83 1016.0
20260505200054 58 168 3.0 7.0 0.00 0.00 0.00 83 1016.1
20260505195548 58 231 2.0 7.0 0.00 0.00 0.00 83 1016.1
20260505195046 57 216 1.0 7.0 0.00 0.00 0.00 84 1016.1
20260505194557 57 223 3.0 7.0 0.00 0.00 0.00 84 1016.2
20260505194046 57 246 3.0 7.0 0.00 0.00 0.00 84 1016.1
20260505193545 57 209 2.0 7.0 0.00 0.00 0.00 84 1016.1
20260505193053 57 183 1.0 8.0 0.00 0.00 0.00 84 1016.1
20260505192547 57 0 1.0 8.0 0.00 0.00 0.00 84 1016.1
20260505192045 57 248 3.0 7.0 0.00 0.00 0.00 83 1016.0
20260505191608 57 239 2.0 6.0 0.00 0.00 0.00 84 1016.0
20260505191046 57 221 0.0 6.0 0.00 0.00 0.00 84 1016.0
20260505190547 57 205 2.0 5.0 0.00 0.00 0.00 84 1016.0
20260505190051 57 0 1.0 7.0 0.00 0.00 0.00 84 1016.0
20260505185547 57 161 3.0 8.0 0.00 0.00 0.00 84 1016.1
20260505185047 57 196 2.0 8.0 0.00 0.00 0.00 85 1015.9
20260505184552 57 205 3.0 8.0 0.00 0.00 0.00 85 1016.0
20260505184047 57 163 2.0 7.0 0.00 0.00 0.00 85 1015.9
20260505183548 57 212 2.0 7.0 0.00 0.00 0.00 85 1015.9
20260505183055 57 206 1.0 7.0 0.00 0.00 0.00 84 1015.9
20260505182544 57 203 2.0 6.0 0.00 0.00 0.00 84 1015.9
20260505182046 57 0 2.0 6.0 0.00 0.00 0.00 84 1015.8
20260505181553 57 217 1.0 7.0 0.00 0.00 0.00 85 1015.8
20260505181045 57 172 1.0 7.0 0.00 0.00 0.00 85 1015.8
20260505180543 56 144 2.0 6.0 0.00 0.00 0.00 86 1015.8
20260505175545 56 167 2.0 7.0 0.00 0.00 0.00 86 1015.8
20260505175045 56 167 3.0 7.0 0.00 0.00 0.00 86 1015.8
20260505174605 56 175 1.0 6.0 0.00 0.00 0.00 87 1015.9
20260505174047 56 213 2.0 8.0 0.00 0.00 0.00 87 1015.9
20260505173549 56 199 3.0 8.0 0.00 0.00 0.00 87 1015.9
20260505173057 56 142 3.0 7.0 0.00 0.00 0.00 87 1015.8
20260505172545 56 0 1.0 7.0 0.00 0.00 0.00 87 1015.8
20260505172044 55 180 2.0 7.0 0.00 0.00 0.00 87 1015.7
20260505171551 55 196 3.0 6.0 0.00 0.00 0.00 87 1015.8
20260505171047 55 176 1.0 6.0 0.00 0.00 0.00 87 1015.8
20260505170543 55 0 2.0 5.0 0.00 0.00 0.00 87 1015.8
20260505170107 55 225 1.0 4.0 0.00 0.00 0.00 87 1015.8
20260505165546 55 146 0.0 3.0 0.00 0.00 0.00 88 1015.8
20260505165050 55 0 1.0 5.0 0.00 0.00 0.00 88 1015.8
20260505164553 55 202 1.0 6.0 0.00 0.00 0.00 88 1015.8
20260505164046 55 213 3.0 6.0 0.00 0.00 0.00 87 1015.8
20260505163548 55 156 1.0 5.0 0.00 0.00 0.00 88 1015.7
20260505163052 55 164 1.0 5.0 0.00 0.00 0.00 88 1015.7
20260505162543 55 172 1.0 5.0 0.00 0.00 0.00 88 1015.7
20260505162047 55 0 1.0 6.0 0.00 0.00 0.00 88 1015.7
20260505161610 55 165 0.0 6.0 0.00 0.00 0.00 88 1015.7
20260505161046 55 157 1.0 5.0 0.00 0.00 0.00 88 1015.7
20260505160546 55 217 2.0 7.0 0.00 0.00 0.00 88 1015.7
20260505153100 54 160 2.0 6.0 0.00 0.00 0.00 90 1015.4
20260505152548 54 160 0.0 5.0 0.00 0.00 0.00 90 1015.5
20260505152045 54 161 1.0 6.0 0.00 0.00 0.00 90 1015.4
20260505151601 53 161 1.0 6.0 0.00 0.00 0.00 90 1015.3
20260505151045 53 161 2.0 9.0 0.00 0.00 0.00 91 1015.2
20260505150546 53 168 2.0 9.0 0.00 0.00 0.00 91 1015.3
20260505140545 53 169 0.0 5.0 0.00 0.00 0.00 92 1014.8
20260505140104 53 170 1.0 5.0 0.00 0.00 0.00 92 1014.7
20260505124551 51 167 1.0 5.0 0.00 0.00 0.00 94 1013.8
20260505124047 51 0 1.0 5.0 0.00 0.00 0.00 94 1013.8
20260505123546 51 167 2.0 5.0 0.00 0.00 0.00 94 1013.7
20260505123049 51 163 0.0 4.0 0.00 0.00 0.00 94 1013.7
20260505122548 50 0 0.0 4.0 0.00 0.00 0.00 93 1013.7
20260505122046 50 163 1.0 5.0 0.00 0.00 0.00 93 1013.7
20260505121612 50 0 1.0 6.0 0.00 0.00 0.00 93 1013.7
20260505121046 50 163 3.0 6.0 0.00 0.00 0.00 93 1013.6
20260505120546 50 174 1.0 3.0 0.00 0.00 0.00 93 1013.6
20260505120055 50 174 0.0 3.0 0.00 0.00 0.00 93 1013.6
20260505115551 50 174 0.0 3.0 0.00 0.00 0.00 93 1013.6
20260505115047 50 174 1.0 6.0 0.00 0.00 0.00 94 1013.6
20260505114551 50 174 1.0 6.0 0.00 0.00 0.00 94 1013.5
20260505114045 50 0 1.0 4.0 0.00 0.00 0.00 93 1013.5
20260505113546 50 178 0.0 3.0 0.00 0.00 0.00 93 1013.6
20260505113052 50 238 0.0 3.0 0.00 0.00 0.00 93 1013.6
20260505112547 49 0 0.0 3.0 0.00 0.00 0.00 93 1013.6
20260505112046 49 0 0.0 2.0 0.00 0.00 0.00 93 1013.6
20260505111550 49 0 0.0 2.0 0.00 0.00 0.00 93 1013.5
20260505111046 49 0 0.0 0.0 0.00 0.00 0.00 92 1013.5
20260505110545 49 0 0.0 1.0 0.00 0.00 0.00 92 1013.4
20260505102046 49 0 0.0 0.0 0.00 0.00 0.00 91 1013.1
20260505101558 49 0 0.0 0.0 0.00 0.00 0.00 91 1013.1
20260505101046 49 0 0.0 0.0 0.00 0.00 0.00 91 1013.1
20260505100544 49 0 0.0 0.0 0.00 0.00 0.00 90 1013.1
20260505100101 50 0 0.0 0.0 0.00 0.00 0.00 90 1013.0
20260505095545 50 0 0.0 0.0 0.00 0.00 0.00 90 1013.0
20260505095046 50 0 0.0 0.0 0.00 0.00 0.00 90 1013.0
20260505094552 50 0 0.0 0.0 0.00 0.00 0.00 89 1012.9
20260505094045 50 0 0.0 0.0 0.00 0.00 0.00 89 1012.8
20260505093545 50 0 0.0 0.0 0.00 0.00 0.00 89 1012.7
20260505093054 50 0 0.0 0.0 0.00 0.00 0.00 89 1012.7
20260505092549 50 0 0.0 0.0 0.00 0.00 0.00 88 1012.7
20260505092047 51 0 0.0 1.0 0.00 0.00 0.00 88 1012.5
20260505091550 51 0 0.0 1.0 0.00 0.00 0.00 88 1012.4
20260505091048 51 0 0.0 0.0 0.00 0.00 0.00 88 1012.4
20260505090546 51 0 0.0 3.0 0.00 0.00 0.00 88 1012.4
20260505085546 51 322 1.0 3.0 0.00 0.00 0.00 87 1012.3
20260505085046 51 322 0.0 2.0 0.00 0.00 0.00 87 1012.3
20260505084554 52 0 0.0 2.0 0.00 0.00 0.00 87 1012.3
20260505084045 52 0 0.0 0.0 0.00 0.00 0.00 86 1012.2
20260505083545 52 0 0.0 0.0 0.00 0.00 0.00 86 1012.1
20260505083056 52 0 0.0 0.0 0.00 0.00 0.00 86 1012.1
20260505082545 52 0 0.0 0.0 0.00 0.00 0.00 85 1012.1
20260505082045 53 0 0.0 0.0 0.00 0.00 0.00 85 1012.1
20260505081557 53 0 0.0 0.0 0.00 0.00 0.00 84 1012.1
20260505081045 53 0 0.0 0.0 0.00 0.00 0.00 84 1012.1
20260505080545 53 0 0.0 0.0 0.00 0.00 0.00 83 1012.0
20260505080055 54 0 0.0 0.0 0.00 0.00 0.00 82 1012.0
20260505075547 54 0 0.0 0.0 0.00 0.00 0.00 82 1012.0
20260505075045 54 0 0.0 1.0 0.00 0.00 0.00 81 1012.1
20260505074557 55 0 0.0 1.0 0.00 0.00 0.00 80 1012.1
20260505074046 55 0 0.0 1.0 0.00 0.00 0.00 80 1011.9
20260505073550 55 0 0.0 2.0 0.00 0.00 0.00 80 1011.9
20260505073059 55 0 0.0 2.0 0.00 0.00 0.00 79 1011.7
20260505072549 55 322 0.0 3.0 0.00 0.00 0.00 79 1011.6
20260505072049 56 0 0.0 3.0 0.00 0.00 0.00 78 1011.7
20260505071556 56 0 0.0 3.0 0.00 0.00 0.00 78 1011.5
20260505071044 56 322 0.0 3.0 0.00 0.00 0.00 77 1011.6
20260505070545 56 322 0.0 3.0 0.00 0.00 0.00 77 1011.5
20260505070051 56 296 1.0 3.0 0.00 0.00 0.00 76 1011.4
20260505065547 57 0 1.0 3.0 0.00 0.00 0.00 75 1011.4
20260505065046 57 303 0.0 3.0 0.00 0.00 0.00 75 1011.4
20260505064556 57 335 0.0 3.0 0.00 0.00 0.00 75 1011.4
20260505064043 57 0 0.0 3.0 0.00 0.00 0.00 75 1011.4
20260505063546 57 340 0.0 1.0 0.00 0.00 0.00 75 1011.3
20260505063053 57 0 0.0 1.0 0.00 0.00 0.00 75 1011.3
20260505062546 57 0 0.0 2.0 0.00 0.00 0.00 75 1011.2
20260505062045 57 0 0.0 2.0 0.00 0.00 0.00 75 1011.0
20260505061602 57 0 0.0 2.0 0.00 0.00 0.00 74 1010.9
20260505061043 57 360 0.0 1.0 0.00 0.00 0.00 75 1010.8
20260505060545 57 0 0.0 1.0 0.00 0.00 0.00 75 1010.7
20260505060058 58 0 0.0 1.0 0.00 0.00 0.00 74 1010.8
20260505055546 58 0 0.0 1.0 0.00 0.00 0.00 73 1010.7
20260505055046 58 0 0.0 4.0 0.00 0.00 0.00 73 1010.7
20260505054557 58 0 0.0 4.0 0.00 0.00 0.00 72 1010.7
20260505054046 59 327 0.0 2.0 0.00 0.00 0.00 72 1010.7
20260505053544 59 0 0.0 1.0 0.00 0.00 0.00 72 1010.8
20260505053106 58 0 0.0 1.0 0.00 0.00 0.00 71 1010.7
20260505052546 59 0 0.0 1.0 0.00 0.00 0.00 71 1010.7
20260505052046 59 0 0.0 3.0 0.00 0.00 0.00 71 1010.6
20260505051552 59 0 0.0 3.0 0.00 0.00 0.00 71 1010.6
20260505051045 59 0 0.0 4.0 0.00 0.00 0.00 70 1010.6
20260505050546 59 0 0.0 4.0 0.00 0.00 0.00 70 1010.6
20260505041550 62 0 0.0 1.0 0.00 0.00 0.00 69 1010.4
20260505041045 62 0 0.0 1.0 0.00 0.00 0.00 67 1010.3
20260505040547 62 0 0.0 2.0 0.00 0.00 0.00 67 1010.3
20260505040052 63 0 0.0 2.0 0.00 0.00 0.00 66 1010.2
20260505035546 63 360 0.0 2.0 0.00 0.00 0.00 67 1010.2
20260505035048 64 352 0.0 3.0 0.00 0.00 0.00 66 1010.1
20260505034552 64 352 0.0 4.0 0.00 0.00 0.00 64 1010.1
20260505034046 64 311 1.0 7.0 0.00 0.00 0.00 64 1010.1
20260505033547 65 13 1.0 7.0 0.00 0.00 0.00 64 1009.9
20260505033114 65 307 2.0 7.0 0.00 0.00 0.00 62 1009.9
20260505032546 65 350 0.0 4.0 0.00 0.00 0.00 62 1009.9
20260505032045 66 333 1.0 4.0 0.00 0.00 0.00 62 1010.0
20260505031553 67 0 0.0 4.0 0.00 0.00 0.00 63 1009.9
20260505031049 67 349 0.0 4.0 0.00 0.00 0.00 62 1009.8
20260505030543 68 305 1.0 4.0 0.00 0.00 0.00 61 1009.8
20260505030055 68 313 1.0 5.0 0.00 0.00 0.00 60 1009.8
20260505025545 69 302 1.0 5.0 0.00 0.00 0.00 59 1009.7
20260505025045 69 306 1.0 4.0 0.00 0.00 0.00 57 1009.6
20260505024604 69 0 1.0 5.0 0.00 0.00 0.00 56 1009.6
20260505024046 70 0 2.0 6.0 0.00 0.00 0.00 55 1009.6
20260505023547 70 336 2.0 6.0 0.00 0.00 0.00 54 1009.5
20260505023106 70 301 2.0 7.0 0.00 0.00 0.00 53 1009.5
20260505022549 70 323 3.0 7.0 0.00 0.00 0.00 52 1009.4
20260505022050 71 300 2.0 10.0 0.00 0.00 0.00 51 1009.4
20260505021601 71 315 4.0 10.0 0.00 0.00 0.00 50 1009.4
20260505021045 72 263 3.0 10.0 0.00 0.00 0.00 51 1009.4
20260505020545 72 302 3.0 10.0 0.00 0.00 0.00 50 1009.3
20260505020057 72 348 3.0 10.0 0.00 0.00 0.00 49 1009.3
20260505015546 73 350 5.0 11.0 0.00 0.00 0.00 48 1009.2
20260505015046 74 341 5.0 11.0 0.00 0.00 0.00 48 1009.2
20260505014556 74 306 3.0 9.0 0.00 0.00 0.00 49 1009.2
20260505014045 75 272 2.0 8.0 0.00 0.00 0.00 48 1009.2
20260505013544 75 0 2.0 8.0 0.00 0.00 0.00 50 1009.1
20260505013105 75 334 3.0 10.0 0.00 0.00 0.00 50 1009.2
20260505012547 75 9 2.0 11.0 0.00 0.00 0.00 50 1009.1
20260505012047 75 333 2.0 11.0 0.00 0.00 0.00 50 1009.1
20260505011601 76 15 4.0 11.0 0.00 0.00 0.00 49 1009.1
20260505011047 76 317 4.0 11.0 0.00 0.00 0.00 49 1009.1
20260505010547 76 326 4.0 10.0 0.00 0.00 0.00 48 1009.1
20260505010109 77 281 3.0 10.0 0.00 0.00 0.00 46 1009.0
20260505005548 78 333 4.0 9.0 0.00 0.00 0.00 45 1009.1
20260505005048 79 308 3.0 10.0 0.00 0.00 0.00 42 1009.0
20260505004559 79 294 3.0 10.0 0.00 0.00 0.00 42 1008.9
20260505004050 79 291 2.0 8.0 0.00 0.00 0.00 40 1008.9
20260505003547 80 284 2.0 8.0 0.00 0.00 0.00 39 1008.9
20260505003053 80 342 2.0 9.0 0.00 0.00 0.00 39 1008.9
20260505002547 80 294 3.0 9.0 0.00 0.00 0.00 38 1008.9
20260505002047 80 0 1.0 6.0 0.00 0.00 0.00 39 1008.9
20260505001558 80 281 2.0 11.0 0.00 0.00 0.00 39 1009.0
20260505001049 80 288 1.0 11.0 0.00 0.00 0.00 38 1009.0
20260505000551 80 286 2.0 11.0 0.00 0.00 0.00 37 1009.1
20260505000101 79 235 1.0 6.0 0.00 0.00 0.00 38 1009.1
20260504235549 80 296 0.0 7.0 0.00 0.00 0.00 39 1009.2
20260504235049 79 352 2.0 7.0 0.00 0.00 0.00 38 1009.1
20260504234616 80 326 2.0 6.0 0.00 0.00 0.00 38 1009.1
20260504234048 79 308 2.0 6.0 0.00 0.00 0.00 40 1009.2
20260504233548 79 317 1.0 9.0 0.00 0.00 0.00 39 1009.3
20260504233058 80 223 3.0 9.0 0.00 0.00 0.00 41 1009.3
20260504232548 80 163 3.0 8.0 0.00 0.00 0.00 40 1009.3
20260504232047 80 163 2.0 8.0 0.00 0.00 0.00 40 1009.3
20260504231559 79 203 2.0 10.0 0.00 0.00 0.00 40 1009.3
20260504231045 78 225 4.0 10.0 0.00 0.00 0.00 41 1009.4
20260504230547 79 221 4.0 7.0 0.00 0.00 0.00 41 1009.4
20260504230053 81 208 2.0 8.0 0.00 0.00 0.00 40 1009.4
20260504225549 80 155 2.0 10.0 0.00 0.00 0.00 42 1009.4
20260504225049 78 0 3.0 10.0 0.00 0.00 0.00 41 1009.4
20260504224604 79 277 2.0 10.0 0.00 0.00 0.00 40 1009.4
20260504224048 81 240 2.0 10.0 0.00 0.00 0.00 38 1009.4
20260504223549 81 165 2.0 10.0 0.00 0.00 0.00 40 1009.5
20260504223054 80 223 3.0 8.0 0.00 0.00 0.00 39 1009.5
20260504222549 80 173 2.0 8.0 0.00 0.00 0.00 39 1009.5
20260504222048 80 219 2.0 8.0 0.00 0.00 0.00 40 1009.5
20260504221604 79 0 3.0 8.0 0.00 0.00 0.00 39 1009.5
20260504221048 79 225 3.0 7.0 0.00 0.00 0.00 39 1009.6
20260504220548 79 311 2.0 8.0 0.00 0.00 0.00 37 1009.6
20260504220058 79 286 2.0 8.0 0.00 0.00 0.00 39 1009.7
20260504215546 79 317 1.0 11.0 0.00 0.00 0.00 38 1009.9
20260504215047 78 180 4.0 11.0 0.00 0.00 0.00 38 1010.0
20260504214602 78 300 2.0 8.0 0.00 0.00 0.00 38 1010.1
20260504214046 79 203 2.0 7.0 0.00 0.00 0.00 38 1010.1
20260504213545 79 281 1.0 8.0 0.00 0.00 0.00 37 1010.1
20260504213105 79 155 1.0 8.0 0.00 0.00 0.00 38 1010.1
20260504212545 78 217 4.0 10.0 0.00 0.00 0.00 41 1010.1
20260504212044 78 167 3.0 10.0 0.00 0.00 0.00 42 1010.2
20260504211604 77 117 2.0 10.0 0.00 0.00 0.00 43 1010.2
20260504211045 77 200 2.0 10.0 0.00 0.00 0.00 43 1010.2
20260504210543 77 269 3.0 8.0 0.00 0.00 0.00 43 1010.2
20260504205549 75 232 2.0 10.0 0.00 0.00 0.00 45 1010.2
20260504205051 77 225 2.0 8.0 0.00 0.00 0.00 43 1010.2
20260504204635 77 96 4.0 10.0 0.00 0.00 0.00 45 1010.3
20260504204048 77 162 4.0 10.0 0.00 0.00 0.00 43 1010.3
20260504203549 77 174 3.0 9.0 0.00 0.00 0.00 43 1010.4
20260504203053 77 157 3.0 8.0 0.00 0.00 0.00 42 1010.4
20260504202545 75 0 3.0 11.0 0.00 0.00 0.00 44 1010.4
20260504202046 76 271 1.0 11.0 0.00 0.00 0.00 44 1010.5
20260504201554 76 159 0.0 7.0 0.00 0.00 0.00 46 1010.4